sat.trackr.live / text

‹ back to catalog

STARLINK-11525 [DTC]

NORAD 62566 · 2025-006N

PAYLOAD ACTIVE UNKNOWN

§ Identity

Operator
Country
US
Launch date
2025-01-10
Launch site
AFETR
Launch vehicle
Mass (kg)
RCS (m²)

Purposes: comms

External: N2YO · Heavens-Above · Gunter

§ Orbital elements

Epoch: 2026-09-21T09:01:04.330848Z

Period
91.67 min
Inclination
43.0014°
Eccentricity
0.0000915
Mean motion
15.70770367 rev/d
Perigee alt
356.1 km
Apogee alt
357.3 km
Semi-major
6,734.8 km
B*
-2.8323e-4
RAAN
40.8202°
Arg perigee
336.6047°
Mean anomaly
23.4779°
Rev number
9,737

§ Raw data

STARLINK-11525 [DTC]1 62566U 25006N   26264.37574457 -.00036523  00000+0 -28323-3 0  99912 62566  43.0014  40.8202 0000915 336.6047  23.4779 15.70770367 97370

JSON: /api/v1/satellites/62566 · /tle

For live sub-satellite position, see the globe view (requires WebGL).

§ Visibility from observer

Set your observer location to see the next 7 days of passes ≥ 10°. The values pass through the URL so the page stays shareable.

No JS? Fill the form by hand. The geolocation button needs JavaScript.